Marshall, MI

4:17 AM EST on January 19, 2017 (GMT -0500)
Brooks

Weather History for KRMY - March, 2013

Change the Weather History Date:

Friday, March 1, 2013

  Actual Average (KBTL) Record (KBTL)
Temperature  
Mean Temperature 26 °F -  
Max Temperature 29 °F 35 °F 57 °F (1997)
Min Temperature 23 °F 21 °F 6 °F (2015)
Degree Days  
Heating Degree Days 39    
Moisture  
Dew Point 19 °F    
Average Humidity 76    
Maximum Humidity 85    
Minimum Humidity 70    
Precipitation  
Precipitation 0.00 in - - ()
Sea Level Pressure  
Sea Level Pressure 30.04 in    
Wind  
Wind Speed 5 mph (North)    
Max Wind Speed 9 mph    
Max Gust Speed -    
Visibility 10 miles    
Events Snow    
Averages and records for this station are not official NWS values.
T = Trace of Precipitation, MM = Missing Value Source: NWS Daily Summary

Daily Weather History Graph

Daily Weather History Graph

Search for Another Location

Airport or City:

Trip Planner

Search our weather history database for the weather conditions in past years. The results will help you decide how hot, cold, wet, or windy it might be!

Date:

Astronomy

Mar. 01, 2013 Rise Set
Actual Time 7:14 AM EST 6:30 PM EST
Civil Twilight 6:46 AM EST 6:58 PM EST
Nautical Twilight 6:14 AM EST 7:30 PM EST
Astronomical Twilight 5:41 AM EST 8:03 PM EST
Moon 11:09 PM EST (3/1) 8:55 AM EST (3/1)
Length of Visible Light 12h 11m
Length of Day
11h 15m
Waning Gibbous, 83% of the Moon is Illuminated
Mar 1
Waning Gibbous
Mar 4
Last Quarter
Mar 11
New
Mar 19
First Quarter
Mar 27
Full

Hourly Weather History & Observations

Time (EST) Temp. Windchill Dew Point Humidity Pressure Visibility Wind Dir Wind Speed Gust Speed Precip Events Conditions
12:34 AM 29.5 °F 23.4 °F 25.5 °F 85% 29.95 in 10.0 mi North 5.8 mph - N/A   Overcast
12:53 AM 29.3 °F 24.3 °F 24.6 °F 83% 29.96 in 10.0 mi North 4.6 mph - N/A   Overcast
1:13 AM 28.9 °F 22.8 °F 23.7 °F 81% 29.96 in 10.0 mi North 5.8 mph - N/A   Overcast
1:33 AM 28.8 °F 22.6 °F 23.7 °F 81% 29.97 in 10.0 mi North 5.8 mph - N/A   Overcast
1:54 AM 28.4 °F 21.2 °F 24.1 °F 84% 29.97 in 10.0 mi NNE 6.9 mph - N/A   Overcast
2:13 AM 28.2 °F - 24.1 °F 84% 29.98 in 10.0 mi Calm Calm - N/A   Overcast
2:33 AM 28.2 °F - 23.9 °F 84% 29.98 in 10.0 mi Calm Calm - N/A   Overcast
2:54 AM 28.2 °F - 23.4 °F 82% 29.97 in 10.0 mi Calm Calm - N/A   Overcast
3:13 AM 28.2 °F 24.4 °F 22.6 °F 80% 29.97 in 10.0 mi NNE 3.5 mph - N/A   Overcast
3:33 AM 28.2 °F 21.0 °F 21.7 °F 77% 29.97 in 10.0 mi NNE 6.9 mph - N/A   Overcast
3:53 AM 28.2 °F 22.0 °F 21.4 °F 76% 29.97 in 10.0 mi NNE 5.8 mph - N/A   Overcast
4:14 AM 28.2 °F - 21.6 °F 76% 29.97 in 10.0 mi Calm Calm - N/A   Overcast
4:33 AM 28.0 °F 21.7 °F 21.6 °F 77% 29.97 in 10.0 mi NNE 5.8 mph - N/A   Overcast
4:54 AM 27.9 °F 24.0 °F 21.7 °F 78% 29.98 in 10.0 mi North 3.5 mph - N/A   Overcast
5:14 AM 27.7 °F 22.4 °F 21.6 °F 78% 29.98 in 10.0 mi North 4.6 mph - N/A   Overcast
5:33 AM 27.7 °F 22.4 °F 21.7 °F 78% 29.99 in 10.0 mi NNE 4.6 mph - N/A   Overcast
6:13 AM 27.3 °F 22.0 °F 21.0 °F 77% 29.99 in 10.0 mi NNE 4.6 mph - N/A   Overcast
6:34 AM 27.1 °F 21.8 °F 20.8 °F 77% 30.00 in 10.0 mi NNE 4.6 mph - N/A   Overcast
7:14 AM 27.0 °F 20.5 °F 21.0 °F 78% 30.01 in 10.0 mi NNE 5.8 mph - N/A   Overcast
7:33 AM 26.8 °F 18.5 °F 20.8 °F 78% 30.01 in 10.0 mi NNE 8.1 mph - N/A   Overcast
7:54 AM 26.8 °F 21.4 °F 21.2 °F 79% 30.02 in 10.0 mi NNE 4.6 mph - N/A   Overcast
8:13 AM 26.8 °F 21.4 °F 21.0 °F 79% 30.03 in 10.0 mi NNE 4.6 mph - N/A   Overcast
8:33 AM 26.8 °F 21.4 °F 20.8 °F 78% 30.04 in 10.0 mi NNE 4.6 mph - N/A   Overcast
8:53 AM 26.8 °F 22.8 °F 20.3 °F 77% 30.04 in 10.0 mi North 3.5 mph - N/A   Overcast
9:13 AM 26.6 °F 18.2 °F 19.8 °F 75% 30.04 in 10.0 mi North 8.1 mph - N/A   Overcast
9:33 AM 26.8 °F 19.3 °F 19.4 °F 74% 30.04 in 10.0 mi NNE 6.9 mph - N/A   Overcast
9:54 AM 26.6 °F 18.2 °F 19.4 °F 74% 30.05 in 10.0 mi North 8.1 mph - N/A   Overcast
10:13 AM 26.6 °F 21.2 °F 19.6 °F 75% 30.05 in 10.0 mi North 4.6 mph - N/A   Overcast
10:34 AM 26.4 °F 20.9 °F 19.6 °F 75% 30.06 in 10.0 mi NNE 4.6 mph - N/A   Overcast
10:53 AM 26.2 °F 18.6 °F 19.4 °F 75% 30.06 in 10.0 mi NNE 6.9 mph - N/A   Overcast
11:14 AM 25.9 °F 19.2 °F 18.9 °F 75% 30.06 in 10.0 mi NE 5.8 mph - N/A   Overcast
11:33 AM 25.7 °F 18.0 °F 18.7 °F 75% 30.07 in 10.0 mi North 6.9 mph - N/A   Overcast
11:54 AM 26.1 °F 21.9 °F 18.7 °F 74% 30.07 in 10.0 mi North 3.5 mph - N/A   Overcast
12:13 PM 25.7 °F 19.0 °F 18.1 °F 73% 30.08 in 10.0 mi NNE 5.8 mph - N/A   Overcast
12:33 PM 25.5 °F 18.7 °F 18.1 °F 74% 30.08 in 10.0 mi North 5.8 mph - N/A   Overcast
12:53 PM 25.3 °F 21.1 °F 18.3 °F 75% 30.07 in 7.0 mi North 3.5 mph - N/A Snow Light Snow
1:13 PM 25.2 °F 18.3 °F 17.6 °F 73% 30.07 in 10.0 mi North 5.8 mph - N/A   Overcast
1:34 PM 25.2 °F 19.5 °F 17.8 °F 74% 30.06 in 10.0 mi North 4.6 mph - N/A   Overcast
1:54 PM 25.7 °F 21.5 °F 18.0 °F 73% 30.06 in 10.0 mi North 3.5 mph - N/A   Overcast
2:13 PM 25.5 °F 17.8 °F 17.8 °F 72% 30.06 in 10.0 mi NNE 6.9 mph - N/A   Overcast
2:33 PM 25.7 °F 16.4 °F 17.6 °F 71% 30.05 in 10.0 mi North 9.2 mph - N/A   Overcast
2:54 PM 25.7 °F 18.0 °F 17.2 °F 70% 30.06 in 10.0 mi North 6.9 mph - N/A   Overcast
3:14 PM 25.3 °F 17.6 °F 17.2 °F 71% 30.05 in 10.0 mi North 6.9 mph - N/A   Overcast
3:33 PM 25.2 °F 18.3 °F 17.2 °F 72% 30.06 in 10.0 mi NNE 5.8 mph - N/A   Overcast
4:14 PM 24.6 °F 16.7 °F 17.2 °F 74% 30.06 in 10.0 mi North 6.9 mph - N/A   Overcast
4:34 PM 24.4 °F 17.5 °F 17.2 °F 74% 30.06 in 10.0 mi NNE 5.8 mph - N/A   Overcast
4:54 PM 23.9 °F 16.8 °F 16.9 °F 75% 30.06 in 10.0 mi North 5.8 mph - N/A   Overcast
5:13 PM 23.9 °F 15.0 °F 16.9 °F 75% 30.07 in 10.0 mi North 8.1 mph - N/A   Overcast
5:34 PM 23.7 °F 15.6 °F 16.3 °F 73% 30.07 in 10.0 mi NNE 6.9 mph - N/A   Overcast
6:13 PM 23.5 °F 17.6 °F 16.9 °F 76% 30.08 in 10.0 mi North 4.6 mph - N/A   Overcast
6:34 PM 23.9 °F 18.0 °F 16.7 °F 74% 30.08 in 10.0 mi North 4.6 mph - N/A   Overcast
6:53 PM 23.9 °F 19.5 °F 16.5 °F 73% 30.08 in 10.0 mi North 3.5 mph - N/A   Overcast
7:14 PM 24.1 °F - 16.5 °F 73% 30.08 in 10.0 mi Calm Calm - N/A   Overcast
7:33 PM 24.1 °F - 16.9 °F 74% 30.09 in 10.0 mi Calm Calm - N/A   Overcast
7:53 PM 24.1 °F - 16.9 °F 74% 30.09 in 10.0 mi Calm Calm - N/A   Overcast
8:14 PM 24.4 °F - 17.2 °F 74% 30.09 in 10.0 mi Calm Calm - N/A   Overcast
8:33 PM 24.4 °F - 17.2 °F 74% 30.10 in 10.0 mi Calm Calm - N/A   Overcast
8:54 PM 24.4 °F - 17.4 °F 75% 30.10 in 10.0 mi Calm Calm - N/A   Overcast
9:13 PM 24.4 °F - 17.6 °F 75% 30.10 in 10.0 mi Calm Calm - N/A   Overcast
9:33 PM 24.6 °F - 17.6 °F 75% 30.10 in 10.0 mi Calm Calm - N/A   Overcast
9:54 PM 24.4 °F - 18.0 °F 76% 30.10 in 10.0 mi Calm Calm - N/A   Overcast
10:14 PM 24.4 °F - 18.0 °F 76% 30.10 in 10.0 mi Calm Calm - N/A   Overcast
10:33 PM 24.4 °F - 18.0 °F 76% 30.10 in 10.0 mi Calm Calm - N/A   Overcast
10:54 PM 24.4 °F 20.1 °F 17.8 °F 76% 30.10 in 10.0 mi WNW 3.5 mph - N/A   Overcast
11:13 PM 24.4 °F 18.6 °F 17.6 °F 75% 30.09 in 10.0 mi WNW 4.6 mph - N/A   Overcast
11:33 PM 24.1 °F 18.2 °F 17.2 °F 75% 30.09 in 10.0 mi NW 4.6 mph - N/A   Overcast
11:54 PM 24.1 °F 19.7 °F 17.1 °F 75% 30.08 in 10.0 mi NNW 3.5 mph - N/A   Overcast